Muscle Shoals, AL

2:58 PM CST on December 12, 2017 (GMT -0600)
Northwest Alabama Regional

Weather History for KMSL - December, 2012

Change the Weather History Date:

Wednesday, December 5, 2012

  Actual Average Record
Temperature  
Mean Temperature 59 °F 46 °F  
Max Temperature 64 °F 56 °F 78 °F (1933)
Min Temperature 53 °F 36 °F 17 °F (1935)
Degree Days  
Heating Degree Days 6 19  
Month to date heating degree days 26 94  
Since 1 July heating degree days 646 656  
Cooling Degree Days 0 0  
Month to date cooling degree days 0 0  
Year to date cooling degree days 2163 1871  
Growing Degree Days 10 (Base 50)    
Moisture  
Dew Point 49 °F    
Average Humidity 70    
Maximum Humidity 93    
Minimum Humidity 46    
Precipitation  
Precipitation 0.01 in 0.19 in 2.87 in (1942)
Month to date precipitation 0.34  
Year to date precipitation 37.90  
Snow  
Snow 0.00 in - - ()
Month to date snowfall 0.0  
Since 1 July snowfall 0.0  
Snow Depth 0.00 in    
Sea Level Pressure  
Sea Level Pressure 30.19 in    
Wind  
Wind Speed 5 mph (NE)    
Max Wind Speed 14 mph    
Max Gust Speed 18 mph    
Visibility 7 miles    
Events Fog , Rain    
T = Trace of Precipitation, MM = Missing Value Source: NWS Daily Summary

Daily Weather History Graph

Daily Weather History Graph

Search for Another Location

Airport or City:

Trip Planner

Search our weather history database for the weather conditions in past years. The results will help you decide how hot, cold, wet, or windy it might be!

Date:

Astronomy

Dec. 05, 2012 Rise Set
Actual Time 6:43 AM CST 4:39 PM CST
Civil Twilight 6:15 AM CST 5:07 PM CST
Nautical Twilight 5:44 AM CST 5:38 PM CST
Astronomical Twilight 5:13 AM CST 6:08 PM CST
Moon 11:16 PM CST (12/5) 11:17 AM CST (12/5)
Length of Visible Light 10h 51m
Length of Day
9h 55m
Waning Gibbous, 59% of the Moon is Illuminated
Dec 5
Waning Gibbous
Dec 6
Last Quarter
Dec 13
New
Dec 19
First Quarter
Dec 28
Full

Hourly Weather History & Observations

Time (CST) Temp. Dew Point Humidity Pressure Visibility Wind Dir Wind Speed Gust Speed Precip Events Conditions
12:27 AM 55.4 °F 53.6 °F 94% 30.20 in 0.5 mi Calm Calm - N/A Fog Fog
12:53 AM 55.0 °F 53.1 °F 93% 30.19 in 0.5 mi Calm Calm - N/A Fog Fog
1:53 AM 55.9 °F 54.0 °F 93% 30.20 in 0.5 mi Calm Calm - N/A Fog Fog
2:02 AM 55.4 °F 53.6 °F 94% 30.21 in 0.2 mi Calm Calm - N/A Fog Fog
2:15 AM 55.4 °F 53.6 °F 94% 30.21 in 0.5 mi WNW 5.8 mph - N/A Fog Fog
2:30 AM 55.4 °F 53.6 °F 94% 30.21 in 1.0 mi NW 3.5 mph - 0.00 in Rain Light Rain
2:53 AM 55.9 °F 54.0 °F 93% 30.19 in 1.8 mi North 3.5 mph - 0.01 in   Overcast
3:06 AM 55.4 °F 53.6 °F 94% 30.21 in 2.5 mi Calm Calm - N/A   Overcast
3:14 AM 55.4 °F 53.6 °F 94% 30.20 in 3.0 mi Calm Calm - N/A   Overcast
3:22 AM 55.4 °F 53.6 °F 94% 30.20 in 3.0 mi Calm Calm - N/A   Overcast
3:32 AM 55.4 °F 53.6 °F 94% 30.21 in 2.0 mi Calm Calm - N/A   Overcast
3:35 AM 55.4 °F 53.6 °F 94% 30.20 in 1.5 mi Calm Calm - N/A   Overcast
3:51 AM 55.4 °F 53.6 °F 94% 30.20 in 2.0 mi North 3.5 mph - N/A   Overcast
3:53 AM 55.9 °F 54.0 °F 93% 30.19 in 2.0 mi North 3.5 mph - N/A   Overcast
4:05 AM 55.4 °F 53.6 °F 94% 30.19 in 4.0 mi NNE 3.5 mph - N/A   Overcast
4:19 AM 57.2 °F 55.4 °F 94% 30.19 in 4.0 mi North 5.8 mph - N/A   Overcast
4:44 AM 57.2 °F 55.4 °F 94% 30.20 in 2.5 mi Variable 4.6 mph - N/A   Overcast
4:51 AM 57.2 °F 55.4 °F 94% 30.21 in 4.0 mi NNE 5.8 mph - N/A   Overcast
4:53 AM 57.9 °F 55.0 °F 90% 30.20 in 5.0 mi NNE 5.8 mph - N/A   Overcast
5:38 AM 57.2 °F 55.4 °F 94% 30.21 in 9.0 mi ENE 4.6 mph - N/A   Overcast
5:53 AM 57.9 °F 55.0 °F 90% 30.22 in 8.0 mi NE 4.6 mph - N/A   Overcast
6:53 AM 57.0 °F 53.1 °F 87% 30.25 in 6.0 mi NE 6.9 mph - N/A   Overcast
8:53 AM 55.9 °F 48.9 °F 77% 30.27 in 10.0 mi ENE 6.9 mph - N/A   Overcast
9:53 AM 57.0 °F 46.0 °F 67% 30.28 in 10.0 mi ENE 9.2 mph 16.1 mph N/A   Overcast
10:53 AM 57.9 °F 46.0 °F 65% 30.25 in 10.0 mi Variable 4.6 mph - N/A   Overcast
11:53 AM 61.0 °F 46.0 °F 58% 30.22 in 10.0 mi ENE 5.8 mph - N/A   Overcast
12:53 PM 64.0 °F 46.9 °F 54% 30.19 in 10.0 mi ENE 6.9 mph - N/A   Overcast
1:53 PM 64.0 °F 44.1 °F 48% 30.17 in 10.0 mi NE 10.4 mph - N/A   Overcast
2:53 PM 62.1 °F 42.1 °F 48% 30.17 in 10.0 mi ENE 8.1 mph - N/A   Overcast
3:16 PM 62.6 °F 42.8 °F 48% 30.18 in 10.0 mi ENE 6.9 mph - N/A   Overcast
3:53 PM 62.1 °F 41.0 °F 46% 30.17 in 10.0 mi ENE 5.8 mph - N/A   Overcast
4:34 PM 60.8 °F 39.2 °F 45% 30.17 in 10.0 mi ENE 4.6 mph - N/A   Overcast
4:53 PM 61.0 °F 39.0 °F 44% 30.17 in 10.0 mi ENE 4.6 mph - N/A   Overcast
5:12 PM 60.8 °F 39.2 °F 45% 30.18 in 10.0 mi ENE 3.5 mph - N/A   Overcast
5:53 PM 59.0 °F 41.0 °F 51% 30.18 in 10.0 mi Calm Calm - N/A   Overcast
6:05 PM 59.0 °F 41.0 °F 51% 30.18 in 10.0 mi Calm Calm - N/A   Overcast
6:34 PM 59.0 °F 42.8 °F 55% 30.17 in 10.0 mi East 3.5 mph - N/A   Overcast
6:53 PM 57.9 °F 42.1 °F 56% 30.16 in 10.0 mi East 3.5 mph - N/A   Overcast
7:02 PM 57.2 °F 44.6 °F 63% 30.17 in 10.0 mi Calm Calm - N/A   Overcast
7:26 PM 57.2 °F 42.8 °F 59% 30.16 in 10.0 mi East 4.6 mph - N/A   Overcast
7:53 PM 57.9 °F 41.0 °F 53% 30.16 in 10.0 mi ESE 3.5 mph - N/A   Overcast
8:53 PM 57.0 °F 44.1 °F 62% 30.15 in 10.0 mi East 3.5 mph - N/A   Overcast
9:53 PM 57.0 °F 45.0 °F 64% 30.14 in 10.0 mi East 4.6 mph - N/A   Overcast
10:28 PM 57.2 °F 44.6 °F 63% 30.13 in 10.0 mi ENE 4.6 mph - N/A   Overcast
10:43 PM 57.2 °F 46.4 °F 67% 30.13 in 10.0 mi NE 3.5 mph - N/A   Overcast
10:53 PM 55.9 °F 46.0 °F 69% 30.13 in 10.0 mi Calm Calm - N/A   Overcast
11:42 PM 55.4 °F 48.2 °F 77% 30.12 in 10.0 mi SE 4.6 mph - N/A   Overcast
11:53 PM 55.9 °F 48.0 °F 75% 30.11 in 10.0 mi ESE 4.6 mph - N/A   Overcast